Location: Bruch
(44.2051°N, 0.4120°E)
Time: 18:30:20
(UTC+00:00)

ATLAS 5 CENTAUR R/B - Pass Details

Date: 29 November 2020
Orbit: 520 x 1138 km, 63.4° (Epoch: 02 January)

Event Time Altitude Azimuth Distance (km) Brightness Sun altitude
Rises 06:24:39 0° 204° (SSW) 2,640 4.8 -8.4°
Reaches altitude 10° 06:26:46 10° 200° (SSW) 1,778 4.0 -8.1°
Maximum altitude 06:30:36 56° 122° (ESE) 673 2.2 -7.4°
Drops below altitude 10° 06:34:54 10° 44° (NE) 1,984 4.4 -6.7°
Sets 06:37:23 0° 41° (NE) 2,984 5.3 -6.3°
